星链-3598 (STARLINK-3598 )

导读 | 豆包AI

STARLINK-3598是美国SpaceX星链星座的卫星成员,于北京时间2022年3月3日发射入轨。星链项目旨在构建全球低轨互联网通信系统,提供高速、低时延的宽带接入服务。该卫星服役近四年,为全球用户,尤其是偏远地区提供互联网连接,同时星链星座也具备潜在军事应用价值。

基本信息
目录编号:
51897
目录名称:
STARLINK-3598
国际标识:
2022-022AX
轨道中心:
EARTH
卫星名称:
星链-3598
卫星全名:
星链-3598 (STARLINK-3598 )
卫星状态:
在轨 (已飞行1519 天)
发射日期:
2022-03-03 UTC
国别 :
美国 (US)
星等 :
--
轨道信息
数据来源 国际轨道数据 AOE轨道数据
星历时间 2026-04-30T17:31:12+0800
13小时前
查看轨道信息
2026-04-30T01:00:00+0800
1天前
查看轨道信息
半长轴 6917.909km 6917.904km
偏心率 0.0001251 0.0003008
轨道倾角 53.217° 53.198°
近地点辐角 81.627° 73.057°
升交点赤经 126.999° 130.093°
平近点角 278.486° 146.138°
近地点 538.906km 537.686km
远地点 540.638km 541.848km
周期 95.438分钟 95.438分钟
每日圈数 15.088308 15.088323
详细信息
固有亮度:
5
最大亮度:
2.5
卫星平台:
Starlink v1.5
覆盖范围:
全球
运营商:
太空探索技术公司
运营商所在国:
美国
制造商(研发单位):
太空探索技术公司
制造商所在国:
美国
使用方式:
暂无
卫星简介
星链(Starlink)计划是由太空探索技术公司(SpaceX)提出的一个巨型低轨卫星互联网星座项目,计划在2019年至2024年间在太空搭建由约1.2万颗卫星组成的“星链”网络,其中1584颗将部署在地球上空550千米处的近地轨道,并从2020年开始工作。该卫星仍在工作。
2D轨道图
3D轨道图
轨道高度分析图
轨道倾角分析图
轨道综合分析图
查看轨道综合分析图